DECAYED

OBJECT D, 62266 (Decayed)

Orbit data source: Space-Track

You're viewing an Uncataloged Satellite

Recently launched and/or uncataloged satellites may have evolving metadata. Metadata may include but not limited to: Owner, Maufacturer, Bus, Motor, and Mission.

OBJECT D, 62266 was a satellite owned by IRSA (IR) in LEO that was launched on Fri, 06 Dec 2024 UTC via an SIMORGH launch vehicle from the Semnan, Iran (SEM). Unknown objects in Earth's orbit typically refer to objects detected orbiting the Earth but have not yet been identified or cataloged. These objects could be anything from previously untracked satellites, spent rocket stages, debris from satellite collisions, or even natural meteoroids temporarily captured by Earth's gravity. This object's orbit decayed before it could be identified.

Not visible in the next 10 days
Identifier
62266, 2024-236D
Orbit
Decayed
Last TLE update
5 months ago
Origin
Flag of UnknownIRSA (Unknown / IRAN)
Manufacturer
IEI
Mission
Decayed Defense Technology
Bus & Motor
FAKHR, Unknown motor
Mass
5 kg wet, 5 kg dry
Launch date (UTC)
2024-12-06 (7 months ago)
Launch vehicle
SIMORGH
Launch site
Semnan, Iran (SEM)
Object type
Unknown
Shape & HBR
Box, 0.3 m
Radar Cross Section
0.035 m², Medium (>0.1 m² and < 1m²)

Expand to show TLE details & history

TLE from 5 months ago
0 OBJECT D
1 62266U 24236D   25039.05010051  .08588739  11096-4  41198-3 0  9995
2 62266  58.5319 101.9830 0010822 292.2957  67.7013 16.42071242  9996
Epoch: 2025-02-08T01:12Z
TLE epoch observation values (Epoch: 2025-02-08T01:12:08.684Z)
Latitude
-0.00002°
Longitude
-54.45675°
Altitude
159.148 km
Speed
7.813 km/s
True Right ascension
06h 47m 55s
True Declination
0° 00' 00"
Sunlit
Object was in full shadow at epoch
Visualization orbit readout
Visualization observer readout
Orbital elements
Apogee altitude
166.763 km
Perigee altitude
152.613 km
Semi-major axis
6,537.825 km
Eccentricity
0.00108
Inclination
58.5319°
RAAN
101.983°
Arg. of periapsis
292.2957°
True anomaly
Unknown
Mean anomaly
67.7013°
Eccentric anomaly
Unknown
Mean motion
4.10576 °/min
Orbital period
87.68 mins
BSTAR
0.00041198
Loading maneuver chart data...
Loading SW <> Apogee altitude chart data...
Loading historical data...
Loading historical data...
Loading historical data...
Loading historical data...
Loading historical data...
Loading historical data...
Loading historical data...
Other satellites on launch #236 in the year 2024 (2024-12-06 UTC)

OBJECT D Visibility

Observer location: undefined°, undefined°

This satellite is decayed
Span
Click to sort rows by Start time (UTC) header in descending order
Start Az.
Max El. time (UTC)
Max El. Az.
Max El.
End time (UTC)
End Az.
|